Hourly Data Report for May 21, 2012

All times are specified in Local Standard Time (LST). Add 1 hour to adjust for Daylight Saving Time where and when it is observed.

DEER LAKE A
NEWFOUNDLAND

49°12'33.000" N
57°23'40.000" W
21.90 m
8401502
71809
YDF

Download Data

Hourly Data (May 2012)
Hourly Data Report for May 21, 2012
Temp Definition
°C
Dew Point Temp Definition
°C
Rel Hum Definition
%
Wind Dir Definition
10's deg

Wind Spd Definition
km/h
Visibility Definition
km
Stn Press Definition
kPa
Hmdx Definition


Wind Chill Definition


Weather Definition


TIME
00:30 Legend Double Dagger 3.2 -0.1 79 24 6 10.0 102.51     LegendNANA
01:30 Legend Double Dagger 1.6 -1.0 83 21 8 10.0 102.54     LegendNANA
02:30 Legend Double Dagger 1.2 -0.4 89 19 4 10.0 102.49     Mainly Clear
03:30 Legend Double Dagger 2.2 0.3 87   0 10.0 102.49     LegendNANA
04:30 Legend Double Dagger 2.5 0.2 85 18 4 10.0 102.54     LegendNANA
05:30 Legend Double Dagger 3.2 1.3 87   0 10.0 102.53     Mostly Cloudy
06:30 Legend Double Dagger 4.0 1.6 84   0 10.0 102.51     LegendNANA
07:30 Legend Double Dagger 4.6 2.1 84 13 4 10.0 102.45     LegendNANA
08:30 Legend Double Dagger 5.2 2.4 82 30 4 10.0 102.41     Cloudy
09:30 Legend Double Dagger 7.1 2.6 73   0 10.0 102.34     LegendNANA
10:30 Legend Double Dagger 9.7 2.3 60   0 10.0 102.25     LegendNANA
11:30 Legend Double Dagger 13.0 2.6 49   0 10.0 102.18     Mostly Cloudy
12:30 Legend Double Dagger 16.0 4.5 46 5 6 10.0 102.05     LegendNANA
13:30 Legend Double Dagger 19.3 3.6 35 25 10 10.0 101.96     LegendNANA
14:30 Legend Double Dagger 21.7 1.0 25 21 15 10.0 101.84     Mainly Clear
15:30 Legend Double Dagger 22.6 2.9 27 21 18 10.0 101.74     LegendNANA
16:30 Legend Double Dagger 22.7 7.5 37 21 28 10.0 101.63     LegendNANA
17:30 Legend Double Dagger 21.4 7.0 39 21 31 10.0 101.60     Mainly Clear
18:30 Legend Double Dagger 19.8 7.3 44 22 28 10.0 101.56     LegendNANA
19:30 Legend Double Dagger 17.0 8.0 55 23 19 10.0 101.56     LegendNANA
20:30 Legend Double Dagger 15.7 7.0 56 26 14 10.0 101.63     Mostly Cloudy
21:30 Legend Double Dagger 14.3 7.4 63 22 12 10.0 101.66     LegendNANA
22:30 Legend Double Dagger 14.0 7.4 64 26 18 10.0 101.64     LegendNANA
23:30 Legend Double Dagger 10.9 7.4 79 19 13 10.0 101.65     Mainly Clear

Notes on Data Quality.

Legend

  • E = Estimated
  • M = Missing
  • NA = Not Available
  • ‡ = Partner data that is not subject to review by the National Climate Archives
Date modified: